Tracking 35237 objects as of 5-Sep-2026
HD Live streaming from Space Station
objects crossing your sky now

SL-4 R/B


SL-4 R/B is no longer on orbit


NORAD ID: 27682
Int'l Code: 2003-006B
Launch date: February 2, 2003
Source: Commonwealth of Independent States (former USSR) (CIS)
Launch site: TYURATAM MISSILE AND SPACE COMPLEX (TTMTR)
Decay date: 2003-02-04

Note: This is a ROCKET BODY
Your satellite tracking list
Your tracking list is empty




NASA's NSSDC Master Catalog

Two Line Element Set (TLE):
1 27682U 03006B   03035.49366916 +.21980138 +12618-4 +36681-3 0  9990
2 27682 051.6600 326.2642 0011990 083.7957 276.5061 16.47078469000323
Source of the keplerian elements: AFSPC